| time (UTC) | temp F | wind direction | speed MPH | gust MPH | rain 1hr in | rain 24hr in | rain mn in | humidity % | barometer mb |
| 20260901135427 | 65 | 310 | 0.0 | 0.0 | 0.00 | 0.00 | 0.00 | 82 | 1022.5 |
| 20260901134926 | 64 | 310 | 0.0 | 0.0 | 0.00 | 0.00 | 0.00 | 83 | 1022.4 |
| 20260901134426 | 64 | 310 | 0.0 | 0.0 | 0.00 | 0.00 | 0.00 | 83 | 1022.4 |
| 20260901133927 | 63 | 310 | 0.0 | 0.0 | 0.00 | 0.00 | 0.00 | 85 | 1022.4 |
| 20260901133422 | 63 | 310 | 0.0 | 0.0 | 0.00 | 0.00 | 0.00 | 84 | 1022.4 |
| 20260901132923 | 62 | 310 | 0.0 | 0.0 | 0.00 | 0.00 | 0.00 | 84 | 1022.3 |
| 20260901132420 | 62 | 310 | 0.0 | 0.0 | 0.00 | 0.00 | 0.00 | 84 | 1022.2 |
| 20260901131920 | 62 | 310 | 0.0 | 0.0 | 0.00 | 0.00 | 0.00 | 83 | 1022.1 |
| 20260901130913 | 62 | 310 | 0.0 | 2.0 | 0.00 | 0.00 | 0.00 | 83 | 1021.9 |
| 20260901130412 | 62 | 310 | 0.0 | 2.0 | 0.00 | 0.00 | 0.00 | 83 | 1021.9 |
| 20260901125910 | 62 | 310 | 0.0 | 0.0 | 0.00 | 0.00 | 0.00 | 83 | 1022.1 |
| 20260901125411 | 62 | 310 | 0.0 | 0.0 | 0.00 | 0.00 | 0.00 | 83 | 1022.1 |
| 20260901124908 | 63 | 310 | 0.0 | 0.0 | 0.00 | 0.00 | 0.00 | 83 | 1022.1 |
| 20260901124406 | 62 | 310 | 0.0 | 0.0 | 0.00 | 0.00 | 0.00 | 83 | 1021.9 |
| 20260901123906 | 62 | 310 | 0.0 | 0.0 | 0.00 | 0.00 | 0.00 | 83 | 1021.9 |
| 20260901123404 | 62 | 310 | 0.0 | 0.0 | 0.00 | 0.00 | 0.00 | 83 | 1021.8 |
| 20260901122907 | 62 | 310 | 0.0 | 0.0 | 0.00 | 0.00 | 0.00 | 83 | 1021.7 |
| 20260901122405 | 62 | 310 | 0.0 | 0.0 | 0.00 | 0.00 | 0.00 | 83 | 1021.7 |
| 20260901121905 | 62 | 310 | 0.0 | 0.0 | 0.00 | 0.00 | 0.00 | 83 | 1021.7 |
| 20260901121405 | 62 | 310 | 0.0 | 0.0 | 0.00 | 0.00 | 0.00 | 83 | 1021.6 |
| 20260901120902 | 62 | 310 | 0.0 | 3.0 | 0.00 | 0.00 | 0.00 | 83 | 1021.6 |
| 20260901120400 | 62 | 310 | 1.0 | 3.0 | 0.00 | 0.00 | 0.00 | 83 | 1021.6 |
| 20260901115900 | 62 | 309 | 1.0 | 2.0 | 0.00 | 0.00 | 0.00 | 83 | 1021.6 |
| 20260901115358 | 62 | 309 | 0.0 | 2.0 | 0.00 | 0.00 | 0.00 | 83 | 1021.6 |
| 20260901114858 | 62 | 313 | 0.0 | 2.0 | 0.00 | 0.00 | 0.00 | 83 | 1021.6 |
| 20260901114356 | 62 | 306 | 0.0 | 2.0 | 0.00 | 0.00 | 0.00 | 83 | 1021.6 |
| 20260901113854 | 62 | 315 | 0.0 | 1.0 | 0.00 | 0.00 | 0.00 | 83 | 1021.5 |
| 20260901113357 | 62 | 335 | 0.0 | 0.0 | 0.00 | 0.00 | 0.00 | 82 | 1021.6 |
| 20260901112852 | 62 | 335 | 0.0 | 0.0 | 0.00 | 0.00 | 0.00 | 82 | 1021.6 |
| 20260901111849 | 63 | 335 | 0.0 | 1.0 | 0.00 | 0.00 | 0.00 | 82 | 1021.5 |
| 20260901111344 | 63 | 335 | 0.0 | 0.0 | 0.00 | 0.00 | 0.00 | 82 | 1021.5 |
| 20260901110842 | 63 | 335 | 0.0 | 1.0 | 0.00 | 0.00 | 0.00 | 82 | 1021.6 |
| 20260901110342 | 62 | 335 | 0.0 | 1.0 | 0.00 | 0.00 | 0.00 | 83 | 1021.5 |
| 20260901105840 | 62 | 335 | 0.0 | 0.0 | 0.00 | 0.00 | 0.00 | 83 | 1021.5 |
| 20260901104839 | 63 | 335 | 0.0 | 0.0 | 0.00 | 0.00 | 0.00 | 82 | 1021.5 |
| 20260901103838 | 63 | 335 | 0.0 | 0.0 | 0.00 | 0.00 | 0.00 | 81 | 1021.5 |
| 20260901103334 | 63 | 335 | 0.0 | 0.0 | 0.00 | 0.00 | 0.00 | 81 | 1021.5 |
| 20260901102832 | 63 | 335 | 0.0 | 0.0 | 0.00 | 0.00 | 0.00 | 81 | 1021.5 |
| 20260901101832 | 63 | 335 | 0.0 | 0.0 | 0.00 | 0.00 | 0.00 | 79 | 1021.6 |
| 20260901101333 | 64 | 335 | 0.0 | 1.0 | 0.00 | 0.00 | 0.00 | 79 | 1021.5 |
| 20260901100831 | 64 | 335 | 0.0 | 2.0 | 0.00 | 0.00 | 0.00 | 79 | 1021.5 |
| 20260901100330 | 64 | 16 | 0.0 | 2.0 | 0.00 | 0.00 | 0.00 | 78 | 1021.6 |
| 20260901095828 | 65 | 307 | 0.0 | 0.0 | 0.00 | 0.00 | 0.00 | 78 | 1021.5 |
| 20260901095328 | 65 | 307 | 0.0 | 0.0 | 0.00 | 0.00 | 0.00 | 78 | 1021.6 |
| 20260901094826 | 64 | 307 | 0.0 | 1.0 | 0.00 | 0.00 | 0.00 | 79 | 1021.6 |
| 20260901094327 | 64 | 307 | 0.0 | 1.0 | 0.00 | 0.00 | 0.00 | 79 | 1021.6 |
| 20260901090314 | 65 | 307 | 0.0 | 2.0 | 0.00 | 0.00 | 0.00 | 77 | 1021.6 |
| 20260901085814 | 65 | 318 | 0.0 | 1.0 | 0.00 | 0.00 | 0.00 | 77 | 1021.6 |
| 20260901085315 | 65 | 318 | 0.0 | 0.0 | 0.00 | 0.00 | 0.00 | 77 | 1021.6 |
| 20260901084812 | 65 | 318 | 0.0 | 0.0 | 0.00 | 0.00 | 0.00 | 77 | 1021.6 |
| 20260901084310 | 65 | 318 | 0.0 | 0.0 | 0.00 | 0.00 | 0.00 | 78 | 1021.6 |
| 20260901083810 | 65 | 318 | 0.0 | 0.0 | 0.00 | 0.00 | 0.00 | 78 | 1021.6 |
| 20260901083311 | 65 | 318 | 0.0 | 0.0 | 0.00 | 0.00 | 0.00 | 78 | 1021.5 |
| 20260901082806 | 65 | 318 | 0.0 | 0.0 | 0.00 | 0.00 | 0.00 | 77 | 1021.5 |
| 20260901082306 | 65 | 318 | 0.0 | 0.0 | 0.00 | 0.01 | 0.00 | 77 | 1021.6 |
| 20260901081804 | 65 | 318 | 0.0 | 0.0 | 0.00 | 0.02 | 0.00 | 76 | 1021.5 |
| 20260901080802 | 65 | 318 | 0.0 | 0.0 | 0.00 | 0.05 | 0.00 | 78 | 1021.5 |
| 20260901080302 | 65 | 318 | 0.0 | 0.0 | 0.00 | 0.07 | 0.00 | 78 | 1021.5 |
| 20260901075800 | 65 | 318 | 0.0 | 0.0 | 0.00 | 0.09 | 0.00 | 78 | 1021.6 |
| 20260901075300 | 65 | 318 | 0.0 | 1.0 | 0.00 | 0.11 | 0.00 | 78 | 1021.5 |
| 20260901074754 | 65 | 318 | 0.0 | 1.0 | 0.00 | 0.12 | 0.00 | 78 | 1021.5 |
| 20260901074252 | 65 | 318 | 0.0 | 0.0 | 0.00 | 0.13 | 0.00 | 77 | 1021.5 |
| 20260901073752 | 65 | 318 | 0.0 | 0.0 | 0.00 | 0.14 | 0.00 | 77 | 1021.6 |
| 20260901073250 | 66 | 318 | 0.0 | 0.0 | 0.00 | 0.14 | 0.00 | 76 | 1021.6 |
| 20260901072750 | 66 | 318 | 0.0 | 2.0 | 0.00 | 0.15 | 0.00 | 76 | 1021.6 |
| 20260901072251 | 66 | 318 | 0.0 | 2.0 | 0.00 | 0.16 | 0.00 | 75 | 1021.5 |
| 20260901071750 | 66 | 318 | 0.0 | 1.0 | 0.00 | 0.18 | 0.00 | 75 | 1021.5 |
| 20260901071250 | 66 | 318 | 0.0 | 1.0 | 0.00 | 0.18 | 0.00 | 75 | 1021.4 |
| 20260901070748 | 66 | 318 | 0.0 | 1.0 | 0.00 | 0.21 | 0.00 | 75 | 1021.4 |
| 20260901070248 | 66 | 318 | 0.0 | 1.0 | 0.00 | 0.25 | 0.00 | 76 | 1021.4 |
| 20260901065740 | 66 | 318 | 0.0 | 0.0 | 0.00 | 0.26 | 0.26 | 74 | 1021.3 |
| 20260901065239 | 66 | 318 | 0.0 | 0.0 | 0.00 | 0.26 | 0.26 | 74 | 1021.4 |
| 20260901063736 | 67 | 317 | 0.0 | 0.0 | 0.00 | 0.26 | 0.26 | 74 | 1021.4 |
| 20260901061733 | 67 | 317 | 0.0 | 0.0 | 0.00 | 0.26 | 0.26 | 75 | 1021.3 |
| 20260901061233 | 67 | 317 | 0.0 | 0.0 | 0.00 | 0.26 | 0.26 | 75 | 1021.3 |
| 20260901060731 | 67 | 317 | 0.0 | 0.0 | 0.00 | 0.26 | 0.26 | 73 | 1021.4 |
| 20260901060232 | 67 | 317 | 0.0 | 1.0 | 0.00 | 0.26 | 0.26 | 74 | 1021.3 |
| 20260901055728 | 67 | 317 | 0.0 | 1.0 | 0.00 | 0.26 | 0.26 | 74 | 1021.1 |
| 20260901055226 | 67 | 325 | 0.0 | 2.0 | 0.00 | 0.26 | 0.26 | 75 | 1021.3 |
| 20260901054725 | 67 | 325 | 1.0 | 2.0 | 0.00 | 0.26 | 0.26 | 74 | 1021.1 |
| 20260901053725 | 67 | 319 | 0.0 | 1.0 | 0.00 | 0.26 | 0.26 | 73 | 1021.0 |
| 20260901052222 | 68 | 310 | 0.0 | 0.0 | 0.00 | 0.26 | 0.26 | 73 | 1021.1 |
| 20260901051721 | 68 | 310 | 0.0 | 0.0 | 0.00 | 0.26 | 0.26 | 73 | 1021.1 |
| 20260901050719 | 68 | 310 | 0.0 | 1.0 | 0.00 | 0.26 | 0.26 | 73 | 1021.0 |
| 20260901050219 | 68 | 310 | 0.0 | 1.0 | 0.00 | 0.26 | 0.26 | 73 | 1021.0 |
| 20260901045717 | 68 | 310 | 0.0 | 0.0 | 0.00 | 0.26 | 0.26 | 73 | 1021.3 |
| 20260901045208 | 68 | 310 | 0.0 | 2.0 | 0.00 | 0.26 | 0.26 | 72 | 1021.3 |
| 20260901044707 | 68 | 310 | 0.0 | 2.0 | 0.00 | 0.26 | 0.26 | 72 | 1021.3 |
| 20260901043705 | 68 | 310 | 0.0 | 1.0 | 0.00 | 0.26 | 0.26 | 72 | 1021.3 |
| 20260901043203 | 69 | 310 | 0.0 | 1.0 | 0.00 | 0.26 | 0.26 | 72 | 1021.0 |
| 20260901042703 | 69 | 310 | 0.0 | 1.0 | 0.00 | 0.26 | 0.26 | 70 | 1021.1 |
| 20260901042203 | 69 | 310 | 0.0 | 2.0 | 0.00 | 0.26 | 0.26 | 70 | 1020.9 |
| 20260901041701 | 69 | 310 | 1.0 | 3.0 | 0.00 | 0.26 | 0.26 | 70 | 1020.9 |
| 20260901041200 | 70 | 331 | 2.0 | 3.0 | 0.00 | 0.26 | 0.26 | 70 | 1020.8 |
| 20260901040159 | 70 | 307 | 0.0 | 3.0 | 0.00 | 0.26 | 0.26 | 70 | 1020.7 |
| 20260901035659 | 71 | 298 | 0.0 | 0.0 | 0.00 | 0.26 | 0.26 | 70 | 1020.6 |
| 20260901035157 | 71 | 298 | 0.0 | 0.0 | 0.00 | 0.26 | 0.26 | 69 | 1020.5 |
| 20260901034655 | 71 | 298 | 0.0 | 0.0 | 0.00 | 0.26 | 0.26 | 69 | 1020.6 |
| 20260901034154 | 71 | 298 | 0.0 | 1.0 | 0.00 | 0.26 | 0.26 | 69 | 1020.6 |
| 20260901033153 | 71 | 298 | 1.0 | 3.0 | 0.00 | 0.26 | 0.26 | 70 | 1020.4 |
| 20260901032651 | 71 | 224 | 0.0 | 0.0 | 0.00 | 0.26 | 0.26 | 71 | 1020.2 |
| 20260901031647 | 71 | 224 | 0.0 | 0.0 | 0.00 | 0.26 | 0.26 | 72 | 1020.0 |
| 20260901031147 | 70 | 224 | 0.0 | 0.0 | 0.00 | 0.26 | 0.26 | 72 | 1020.1 |
| 20260901030650 | 70 | 224 | 0.0 | 0.0 | 0.00 | 0.26 | 0.26 | 72 | 1020.0 |
| 20260901030147 | 70 | 224 | 0.0 | 0.0 | 0.00 | 0.26 | 0.26 | 73 | 1019.9 |
| 20260901025144 | 70 | 224 | 0.0 | 0.0 | 0.00 | 0.26 | 0.26 | 74 | 1019.8 |
| 20260901024645 | 70 | 224 | 0.0 | 0.0 | 0.00 | 0.26 | 0.26 | 73 | 1019.9 |
| 20260901024145 | 70 | 224 | 0.0 | 1.0 | 0.00 | 0.26 | 0.26 | 74 | 1020.0 |
| 20260901023645 | 71 | 224 | 0.0 | 1.0 | 0.00 | 0.26 | 0.26 | 72 | 1020.0 |
| 20260901023144 | 71 | 224 | 1.0 | 2.0 | 0.00 | 0.26 | 0.26 | 72 | 1020.0 |
| 20260901022642 | 70 | 224 | 1.0 | 2.0 | 0.00 | 0.26 | 0.26 | 72 | 1020.0 |
| 20260901021138 | 71 | 224 | 0.0 | 0.0 | 0.00 | 0.26 | 0.26 | 72 | 1019.9 |
| 20260901020636 | 71 | 224 | 0.0 | 0.0 | 0.00 | 0.26 | 0.26 | 73 | 1020.0 |
| 20260901020137 | 71 | 224 | 0.0 | 0.0 | 0.00 | 0.26 | 0.26 | 73 | 1019.8 |
| 20260901015635 | 72 | 224 | 0.0 | 0.0 | 0.00 | 0.26 | 0.26 | 73 | 1019.8 |
| 20260901014633 | 72 | 224 | 0.0 | 0.0 | 0.00 | 0.26 | 0.26 | 72 | 1019.8 |
| 20260901014131 | 72 | 224 | 0.0 | 0.0 | 0.00 | 0.26 | 0.26 | 71 | 1019.7 |
| 20260901013631 | 73 | 224 | 0.0 | 0.0 | 0.00 | 0.26 | 0.26 | 71 | 1019.7 |
| 20260901013128 | 73 | 224 | 0.0 | 0.0 | 0.00 | 0.26 | 0.26 | 71 | 1019.6 |
| 20260901012626 | 73 | 224 | 0.0 | 0.0 | 0.00 | 0.26 | 0.26 | 71 | 1019.7 |
| 20260901012127 | 73 | 224 | 0.0 | 0.0 | 0.00 | 0.26 | 0.26 | 68 | 1019.8 |
| 20260901011127 | 74 | 224 | 0.0 | 0.0 | 0.00 | 0.26 | 0.26 | 68 | 1019.8 |
| 20260901010618 | 74 | 224 | 0.0 | 0.0 | 0.00 | 0.26 | 0.26 | 68 | 1019.7 |
| 20260901010117 | 74 | 224 | 0.0 | 0.0 | 0.00 | 0.26 | 0.26 | 67 | 1019.8 |
| 20260901005115 | 74 | 224 | 0.0 | 0.0 | 0.00 | 0.26 | 0.26 | 68 | 1019.9 |
| 20260901004613 | 74 | 224 | 0.0 | 1.0 | 0.00 | 0.26 | 0.26 | 66 | 1019.9 |
| 20260901004113 | 74 | 224 | 0.0 | 2.0 | 0.00 | 0.26 | 0.26 | 66 | 1019.9 |
| 20260901003613 | 74 | 224 | 0.0 | 2.0 | 0.00 | 0.26 | 0.26 | 65 | 1019.9 |
| 20260901003112 | 74 | 224 | 0.0 | 2.0 | 0.00 | 0.26 | 0.26 | 65 | 1020.0 |
| 20260901002611 | 74 | 224 | 1.0 | 2.0 | 0.00 | 0.26 | 0.26 | 64 | 1020.0 |
| 20260901002111 | 74 | 224 | 1.0 | 3.0 | 0.00 | 0.26 | 0.26 | 64 | 1019.9 |
| 20260901001609 | 75 | 188 | 1.0 | 3.0 | 0.00 | 0.26 | 0.26 | 64 | 1019.9 |
| 20260901000609 | 75 | 188 | 1.0 | 3.0 | 0.00 | 0.26 | 0.26 | 64 | 1020.0 |
| 20260901000107 | 75 | 188 | 1.0 | 3.0 | 0.00 | 0.26 | 0.26 | 62 | 1020.1 |
| 20260831235606 | 76 | 194 | 0.0 | 2.0 | 0.00 | 0.26 | 0.26 | 63 | 1020.2 |
| 20260831235105 | 76 | 194 | 0.0 | 2.0 | 0.00 | 0.26 | 0.26 | 62 | 1020.4 |
| 20260831234105 | 77 | 194 | 0.0 | 0.0 | 0.00 | 0.26 | 0.26 | 62 | 1020.6 |
| 20260831233603 | 77 | 194 | 0.0 | 1.0 | 0.00 | 0.26 | 0.26 | 62 | 1020.6 |
| 20260831233101 | 77 | 194 | 0.0 | 1.0 | 0.00 | 0.26 | 0.26 | 60 | 1020.6 |
| 20260831232059 | 78 | 194 | 0.0 | 3.0 | 0.00 | 0.26 | 0.26 | 56 | 1020.7 |
| 20260831231556 | 79 | 153 | 0.0 | 1.0 | 0.00 | 0.26 | 0.26 | 58 | 1020.6 |
| 20260831231057 | 79 | 165 | 0.0 | 0.0 | 0.00 | 0.26 | 0.26 | 59 | 1020.7 |
| 20260831230554 | 79 | 117 | 0.0 | 2.0 | 0.00 | 0.26 | 0.26 | 57 | 1020.7 |
| 20260831230055 | 79 | 117 | 0.0 | 3.0 | 0.00 | 0.26 | 0.26 | 56 | 1020.7 |
| 20260831225552 | 78 | 117 | 0.0 | 3.0 | 0.00 | 0.26 | 0.26 | 57 | 1021.0 |
| 20260831225053 | 78 | 117 | 0.0 | 2.0 | 0.00 | 0.26 | 0.26 | 57 | 1021.0 |
| 20260831224550 | 77 | 116 | 0.0 | 2.0 | 0.00 | 0.26 | 0.26 | 64 | 1021.0 |
| 20260831224053 | 77 | 31 | 0.0 | 2.0 | 0.00 | 0.26 | 0.26 | 61 | 1021.1 |
| 20260831223550 | 77 | 143 | 0.0 | 2.0 | 0.00 | 0.26 | 0.26 | 61 | 1021.1 |
| 20260831223051 | 76 | 65 | 0.0 | 2.0 | 0.00 | 0.26 | 0.26 | 61 | 1021.3 |
| 20260831222550 | 76 | 19 | 0.0 | 2.0 | 0.00 | 0.26 | 0.26 | 62 | 1021.3 |
| 20260831222051 | 76 | 42 | 0.0 | 2.0 | 0.00 | 0.26 | 0.26 | 60 | 1021.3 |
| 20260831221048 | 78 | 107 | 1.0 | 3.0 | 0.00 | 0.26 | 0.26 | 59 | 1021.4 |
| 20260831220542 | 78 | 151 | 1.0 | 3.0 | 0.00 | 0.26 | 0.26 | 59 | 1021.4 |
| 20260831220043 | 78 | 158 | 1.0 | 3.0 | 0.00 | 0.26 | 0.26 | 56 | 1021.5 |
| 20260831215545 | 79 | 155 | 1.0 | 3.0 | 0.00 | 0.26 | 0.26 | 57 | 1021.5 |
| 20260831215045 | 79 | 152 | 1.0 | 3.0 | 0.00 | 0.26 | 0.26 | 59 | 1021.6 |
| 20260831214543 | 78 | 117 | 0.0 | 3.0 | 0.00 | 0.26 | 0.26 | 60 | 1021.7 |
| 20260831214038 | 78 | 128 | 1.0 | 3.0 | 0.00 | 0.26 | 0.26 | 61 | 1021.7 |
| 20260831213538 | 78 | 136 | 1.0 | 3.0 | 0.00 | 0.26 | 0.26 | 60 | 1021.7 |
| 20260831213036 | 78 | 136 | 1.0 | 3.0 | 0.00 | 0.26 | 0.26 | 61 | 1021.7 |
| 20260831212535 | 78 | 152 | 1.0 | 3.0 | 0.00 | 0.26 | 0.26 | 62 | 1021.8 |
| 20260831211529 | 76 | 107 | 1.0 | 3.0 | 0.00 | 0.26 | 0.26 | 67 | 1021.8 |
| 20260831211028 | 76 | 149 | 1.0 | 3.0 | 0.00 | 0.26 | 0.26 | 68 | 1021.9 |
| 20260831210529 | 75 | 113 | 0.0 | 2.0 | 0.00 | 0.26 | 0.26 | 69 | 1021.9 |
| 20260831210029 | 75 | 96 | 0.0 | 1.0 | 0.00 | 0.26 | 0.26 | 68 | 1022.2 |
| 20260831205526 | 75 | 49 | 0.0 | 1.0 | 0.00 | 0.26 | 0.26 | 68 | 1022.3 |
| 20260831204525 | 74 | 41 | 1.0 | 3.0 | 0.00 | 0.26 | 0.26 | 68 | 1022.5 |
| 20260831204025 | 74 | 30 | 1.0 | 3.0 | 0.00 | 0.26 | 0.26 | 69 | 1022.6 |
| 20260831203524 | 74 | 38 | 1.0 | 3.0 | 0.00 | 0.26 | 0.26 | 68 | 1022.6 |
| 20260831203024 | 74 | 35 | 0.0 | 2.0 | 0.00 | 0.26 | 0.26 | 68 | 1022.6 |
| 20260831202524 | 73 | 26 | 0.0 | 3.0 | 0.00 | 0.26 | 0.26 | 71 | 1022.6 |
| 20260831202025 | 73 | 26 | 1.0 | 3.0 | 0.00 | 0.26 | 0.26 | 69 | 1022.6 |
| 20260831201525 | 73 | 32 | 0.0 | 3.0 | 0.00 | 0.26 | 0.26 | 70 | 1022.7 |
| 20260831201024 | 73 | 34 | 0.0 | 0.0 | 0.00 | 0.26 | 0.26 | 71 | 1022.6 |
| 20260831200525 | 73 | 30 | 0.0 | 2.0 | 0.00 | 0.26 | 0.26 | 70 | 1022.6 |
| 20260831200025 | 73 | 30 | 0.0 | 2.0 | 0.00 | 0.26 | 0.26 | 70 | 1022.7 |
| 20260831195525 | 73 | 38 | 0.0 | 2.0 | 0.00 | 0.26 | 0.26 | 70 | 1022.8 |
| 20260831195024 | 73 | 38 | 0.0 | 2.0 | 0.00 | 0.26 | 0.26 | 69 | 1022.8 |
| 20260831194525 | 73 | 34 | 0.0 | 3.0 | 0.00 | 0.26 | 0.26 | 68 | 1022.8 |
| 20260831194024 | 74 | 34 | 0.0 | 3.0 | 0.00 | 0.26 | 0.26 | 70 | 1022.8 |
| 20260831193525 | 74 | 44 | 0.0 | 1.0 | 0.00 | 0.26 | 0.26 | 70 | 1022.8 |
| 20260831193025 | 73 | 84 | 0.0 | 1.0 | 0.00 | 0.26 | 0.26 | 72 | 1022.8 |
| 20260831192524 | 73 | 84 | 0.0 | 1.0 | 0.00 | 0.26 | 0.26 | 69 | 1022.8 |
| 20260831192024 | 73 | 96 | 0.0 | 1.0 | 0.00 | 0.26 | 0.26 | 70 | 1022.8 |
| 20260831191525 | 73 | 59 | 0.0 | 0.0 | 0.00 | 0.26 | 0.26 | 71 | 1022.8 |
| 20260831191025 | 73 | 153 | 0.0 | 0.0 | 0.00 | 0.26 | 0.26 | 70 | 1022.8 |
| 20260831190525 | 72 | 153 | 0.0 | 1.0 | 0.00 | 0.26 | 0.26 | 72 | 1022.8 |
| 20260831185526 | 72 | 153 | 0.0 | 2.0 | 0.00 | 0.26 | 0.26 | 72 | 1023.0 |
| 20260831185024 | 72 | 153 | 1.0 | 3.0 | 0.00 | 0.26 | 0.26 | 72 | 1023.1 |
| 20260831184524 | 72 | 153 | 1.0 | 3.0 | 0.00 | 0.26 | 0.26 | 73 | 1023.1 |
| 20260831183525 | 72 | 118 | 1.0 | 2.0 | 0.00 | 0.26 | 0.26 | 73 | 1023.2 |
| 20260831183024 | 72 | 118 | 1.0 | 2.0 | 0.00 | 0.26 | 0.26 | 73 | 1023.3 |
| 20260831182524 | 72 | 144 | 1.0 | 2.0 | 0.00 | 0.26 | 0.26 | 74 | 1023.2 |
| 20260831182024 | 72 | 144 | 0.0 | 2.0 | 0.00 | 0.26 | 0.26 | 73 | 1023.2 |
| 20260831181525 | 72 | 131 | 0.0 | 2.0 | 0.00 | 0.26 | 0.26 | 73 | 1023.2 |
| 20260831180524 | 71 | 59 | 1.0 | 6.0 | 0.00 | 0.26 | 0.26 | 73 | 1023.2 |
| 20260831175524 | 71 | 281 | 0.0 | 0.0 | 0.00 | 0.26 | 0.26 | 77 | 1023.2 |
| 20260831175025 | 71 | 281 | 0.0 | 2.0 | 0.00 | 0.26 | 0.26 | 76 | 1023.2 |
| 20260831173524 | 71 | 309 | 0.0 | 3.0 | 0.00 | 0.26 | 0.26 | 76 | 1023.3 |
| 20260831173025 | 70 | 303 | 0.0 | 3.0 | 0.00 | 0.26 | 0.26 | 76 | 1023.3 |
| 20260831172524 | 70 | 97 | 0.0 | 3.0 | 0.00 | 0.26 | 0.26 | 78 | 1023.4 |
| 20260831172024 | 70 | 97 | 0.0 | 3.0 | 0.00 | 0.26 | 0.26 | 79 | 1023.5 |
| 20260831171524 | 69 | 61 | 0.0 | 2.0 | 0.00 | 0.26 | 0.26 | 79 | 1023.4 |
| 20260831171025 | 68 | 110 | 0.0 | 0.0 | 0.00 | 0.26 | 0.26 | 81 | 1023.5 |
| 20260831170524 | 68 | 110 | 0.0 | 0.0 | 0.00 | 0.26 | 0.26 | 82 | 1023.6 |
| 20260831170024 | 67 | 110 | 0.0 | 0.0 | 0.00 | 0.26 | 0.26 | 82 | 1023.6 |
| 20260831165525 | 67 | 110 | 0.0 | 0.0 | 0.00 | 0.26 | 0.26 | 81 | 1023.6 |
| 20260831165025 | 67 | 110 | 0.0 | 0.0 | 0.00 | 0.26 | 0.26 | 84 | 1023.8 |
| 20260831164520 | 66 | 110 | 0.0 | 0.0 | 0.00 | 0.26 | 0.26 | 83 | 1023.5 |
| 20260831164021 | 65 | 110 | 0.0 | 0.0 | 0.00 | 0.26 | 0.26 | 82 | 1023.6 |
| 20260831163520 | 65 | 110 | 0.0 | 0.0 | 0.00 | 0.26 | 0.26 | 83 | 1023.5 |
| 20260831163020 | 65 | 110 | 0.0 | 0.0 | 0.00 | 0.28 | 0.26 | 82 | 1023.5 |
| 20260831162520 | 65 | 110 | 0.0 | 0.0 | 0.00 | 0.29 | 0.26 | 82 | 1023.4 |
| 20260831162021 | 65 | 110 | 0.0 | 0.0 | 0.00 | 0.29 | 0.26 | 81 | 1023.3 |
| 20260831161014 | 65 | 110 | 1.0 | 5.0 | 0.00 | 0.29 | 0.26 | 79 | 1022.8 |
| 20260831160512 | 65 | 89 | 2.0 | 5.0 | 0.00 | 0.29 | 0.26 | 78 | 1022.3 |
| 20260831160012 | 65 | 81 | 1.0 | 4.0 | 0.00 | 0.30 | 0.26 | 78 | 1022.6 |
| 20260831155510 | 65 | 93 | 1.0 | 3.0 | 0.00 | 0.30 | 0.26 | 79 | 1022.8 |
| 20260831155009 | 65 | 117 | 0.0 | 2.0 | 0.00 | 0.30 | 0.26 | 80 | 1023.0 |
| 20260831154505 | 65 | 152 | 0.0 | 0.0 | 0.00 | 0.30 | 0.26 | 83 | 1023.0 |
| 20260831154000 | 65 | 238 | 0.0 | 0.0 | 0.00 | 0.30 | 0.26 | 83 | 1023.0 |
| 20260831153458 | 64 | 238 | 0.0 | 0.0 | 0.00 | 0.30 | 0.26 | 81 | 1022.8 |
| 20260831152958 | 64 | 238 | 0.0 | 0.0 | 0.00 | 0.30 | 0.26 | 82 | 1022.8 |
| 20260831151459 | 64 | 238 | 0.0 | 0.0 | 0.00 | 0.30 | 0.26 | 83 | 1022.8 |
| 20260831150954 | 64 | 238 | 0.0 | 0.0 | 0.00 | 0.30 | 0.26 | 83 | 1022.6 |
| 20260831145953 | 64 | 238 | 0.0 | 0.0 | 0.00 | 0.30 | 0.26 | 83 | 1022.6 |
| 20260831145453 | 63 | 238 | 0.0 | 0.0 | 0.00 | 0.30 | 0.26 | 84 | 1022.5 |
| 20260831144950 | 63 | 238 | 0.0 | 0.0 | 0.00 | 0.30 | 0.26 | 84 | 1022.6 |
| 20260831144451 | 63 | 238 | 0.0 | 0.0 | 0.00 | 0.30 | 0.26 | 84 | 1022.5 |
| 20260831143949 | 63 | 238 | 0.0 | 0.0 | 0.00 | 0.30 | 0.26 | 84 | 1022.4 |
| 20260831142947 | 63 | 238 | 0.0 | 0.0 | 0.00 | 0.30 | 0.26 | 83 | 1022.2 |
| 20260831142446 | 63 | 238 | 0.0 | 0.0 | 0.00 | 0.30 | 0.26 | 83 | 1022.1 |
| 20260831141946 | 63 | 238 | 0.0 | 0.0 | 0.00 | 0.30 | 0.26 | 83 | 1021.9 |
| 20260831141447 | 63 | 238 | 0.0 | 0.0 | 0.00 | 0.30 | 0.26 | 83 | 1022.1 |
| 20260831140947 | 63 | 238 | 0.0 | 0.0 | 0.00 | 0.30 | 0.26 | 82 | 1021.8 |
| 20260831140445 | 63 | 238 | 0.0 | 0.0 | 0.00 | 0.30 | 0.26 | 81 | 1021.7 |
| 20260831135945 | 63 | 238 | 0.0 | 0.0 | 0.00 | 0.30 | 0.26 | 80 | 1021.7 |